Location: Mexico
(19.4000°N, 99.1500°W)
Time: 10:14:30
(UTC-06:00)

ISS - Pass Details

Date: 18 August 2017
Orbit: 401 x 408 km, 51.6° (Epoch: 19 August)

Event Time Altitude Azimuth Distance (km) Brightness Sun altitude
Rises 19:48:50 0° 307° (NW) 2,301 1.5 -11.4°
Reaches altitude 10° 19:51:05 10° 295° (WNW) 1,442 0.5 -11.9°
Maximum altitude 19:53:53 27° 234° (SW) 793 -2.0 -12.5°
Drops below altitude 10° 19:56:41 10° 174° (S) 1,438 -1.3 -13.2°
Enters shadow 19:57:15 - 169° (S) 1,642 -1.0 -13.3°
